Flag for Austria Weather past 2 weeks in Hallein, Salzburg, Austria

Now
36 °F

Passing clouds.


Feels Like: 31 °F
Forecast: 21 / 30 °F
Wind: 6 mph from Southeast

Location: Salzburg-Flughafen

Current Time: Jan 29, 2015 at 7:53:07 PM

Latest Report: Jan 29, 2015 at 7:20 PM


Visibility: N/A

Pressure: 29.15 "Hg

Humidity: 70%

Dew point: 27 °F

Location of HalleinLocation

Historic Weather in Hallein — Graph

°F

Hallein temperature yesterday

Maximum temperature yesterday: 36 °F (at 12:20 PM)
Minimum temperature yesterday: 28 °F (at 10:50 PM)
Average temperature yesterday: 32 °F

Past Weeks' High & Low Weather Summary

 TemperatureHumidityPressure
High57 °F (Jan 16, 7:20 PM)100% (Jan 17, 5:20 PM)30.36 "Hg (Jan 17, 5:20 PM)
Low21 °F (Jan 21, 7:50 AM)33% (Jan 16, 7:20 PM)29.21 "Hg (Jan 29, 6:20 PM)
Average33 °F86%29.95 "Hg
* Reported Jan 14 6:20 PM — Jan 29 6:20 PM, Hallein, Weather by CustomWeather, © 2014

Note: Actual official high and low records may vary slightly from our data, if they occured in-between our weather recording intervals... More about our weather records

Advertising

Hallein weather history for previous 24 hours

 ConditionsComfort  
Time TempWeatherWind HumidityBarometerVisibility
6:20 PM
Jan 29
36 °FPassing clouds.10 mph75%29.21 "HgN/A
5:50 PM36 °FPassing clouds.9 mph75%29.24 "HgN/A
5:20 PM36 °FPassing clouds.5 mph75%29.24 "HgN/A
4:50 PM36 °FPartly sunny.8 mph75%29.27 "HgN/A
4:20 PM36 °FPartly sunny.8 mph75%29.30 "HgN/A
3:50 PM36 °FPartly sunny.10 mph70%29.30 "HgN/A
3:20 PM37 °FPartly sunny.9 mph65%29.33 "HgN/A
2:50 PM36 °FPartly sunny.10 mph70%29.33 "HgN/A
2:20 PM36 °FPartly sunny.9 mph70%29.36 "HgN/A
1:50 PM36 °FPartly sunny.12 mph70%29.39 "HgN/A
1:20 PM36 °FPartly sunny.10 mph70%29.42 "HgN/A
12:50 PM36 °FPartly sunny.12 mph70%29.45 "HgN/A
12:20 PM34 °FPartly sunny.10 mph81%29.47 "HgN/A
11:50 AM36 °FPartly sunny.8 mph70%29.50 "HgN/A
11:20 AM36 °FBroken clouds.5 mph65%29.53 "HgN/A
10:50 AM34 °FBroken clouds.8 mph70%29.53 "HgN/A
10:20 AM34 °FBroken clouds.12 mph75%29.56 "HgN/A
9:50 AM32 °FBroken clouds.2 mph93%29.56 "HgN/A
9:20 AM32 °FLight snow. Broken clouds.5 mph93%29.56 "Hg4 mi
8:50 AM32 °FLight snow. Ice fog.3 mph93%29.56 "Hg2 mi
8:20 AM30 °FLight snow. Ice fog.3 mph100%29.56 "Hg1 mi
7:50 AM30 °FLight snow. Ice fog.3 mph100%29.56 "Hg2 mi
7:20 AM30 °FLight snow. Ice fog.6 mph100%29.53 "Hg2 mi
6:50 AM30 °FLight snow. Partly cloudy.6 mph100%29.53 "Hg4 mi
6:20 AM30 °FLight snow. Partly cloudy.6 mph100%29.53 "Hg5 mi
5:50 AM30 °FLight snow. Partly cloudy.5 mph100%29.53 "Hg3 mi
5:20 AM30 °FLight snow. Partly cloudy.3 mph100%29.53 "HgN/A
4:50 AM30 °FLight snow. Partly cloudy.8 mph100%29.53 "Hg5 mi
4:20 AM30 °FLight snow. Partly cloudy.12 mph93%29.53 "Hg5 mi
3:50 AM30 °FLight snow. Passing clouds.14 mph86%29.53 "Hg5 mi
3:20 AM30 °FLight snow. Passing clouds.14 mph86%29.53 "Hg6 mi
2:50 AM30 °FSnow. Partly cloudy.12 mph86%29.53 "Hg6 mi
2:20 AM32 °FSnow flurries. Passing clouds.12 mph75%29.56 "Hg4 mi
1:50 AM32 °FSnow flurries. Passing clouds.10 mph69%29.56 "HgN/A
1:20 AM34 °FPassing clouds.13 mph65%29.56 "HgN/A
12:50 AM34 °FLight snow. Passing clouds.12 mph60%29.56 "HgN/A
12:20 AM34 °FPassing clouds.15 mph60%29.56 "HgN/A
11:50 PM
Jan 28
30 °FPassing clouds.14 mph75%29.59 "HgN/A
11:20 PM30 °FPartly cloudy.15 mph75%29.59 "HgN/A
10:50 PM28 °FPartly cloudy.15 mph80%29.62 "HgN/A
10:20 PM30 °FPartly cloudy.12 mph69%29.65 "HgN/A
9:50 PM30 °FPassing clouds.9 mph75%29.68 "HgN/A
9:20 PM30 °FPassing clouds.15 mph75%29.68 "HgN/A
8:50 PM30 °FPassing clouds.15 mph75%29.71 "HgN/A
8:20 PM30 °FPassing clouds.14 mph75%29.74 "HgN/A
7:50 PM32 °FClear.14 mph69%29.77 "Hg10 mi
7:20 PM34 °FClear.15 mph60%29.77 "Hg10 mi
Weather by CustomWeather, © 2014

See weather overviewHow to use our weather pages